#timestamp,LO_Frequency,Hit,StdDev 
1626091215.8,286046999.8,N
1626091235.6,286047000.0,N
1626091255.4,286046999.8,N
1626091275.3,286047002.2,N
1626091295.1,286047001.9,N
1626091315.9,286047004.0,N
1626091335.7,286047003.6,N
1626091355.5,286047004.1,N
1626091375.4,286047004.3,N
1626091395.2,286047003.4,N
1626091415.0,286047003.7,N
1626091416.0,286047003.7,N
1626091435.8,286047003.3,N
1626091455.6,286047003.6,N
1626091475.5,286047003.2,N
1626091495.3,286047003.3,N
1626091515.1,286047003.0,N
1626091535.9,286047003.5,N
1626091555.7,286047003.3,N
1626091575.6,286047003.3,N
1626091595.4,286047004.2,N
1626091615.2,286047003.2,N
1626091635.1,286047003.4,N
1626091636.0,286047003.4,N
1626091655.8,286047003.2,N
1626091675.6,286047003.3,N
1626091695.5,286047003.4,N
1626091715.3,286047003.1,N
1626091735.2,286047002.9,N
1626091755.9,286047005.9,Y
1626091775.7,286047002.6,P
1626091795.6,286047004.1,P
1626091815.4,286047001.4,N
1626091835.2,286047001.9,N
1626091855.1,286047002.3,N
1626091856.0,286047002.3,N
1626091875.8,286047001.9,N
1626091895.7,286047002.6,Y
1626091915.5,286046999.3,P
1626091935.3,286046996.7,N
1626091955.2,286046996.6,N
1626091975.0,286046999.4,N
1626091975.9,286046999.4,N
1626091995.7,286046996.5,N
1626092015.6,286046998.8,N
1626092035.4,286047000.8,N
1626092055.3,286046998.9,N
1626092075.1,286046999.3,N
1626092076.0,286046999.3,N
1626092095.8,286046997.2,N
1626092115.7,286046997.1,N
1626092135.5,286046998.0,N
1626092155.3,286046997.5,N
1626092175.2,286046997.0,N
1626092195.0,286046996.7,N
1626092195.9,286046996.7,N
1626092215.8,286046998.9,N
1626092235.6,286046999.2,N
1626092255.4,286046998.4,N
1626092275.3,286046996.9,N
1626092295.1,286046999.3,N
1626092315.8,286046998.9,N
1626092335.7,286046998.5,N
1626092355.5,286047001.0,N
1626092375.4,286046998.4,N
1626092395.2,286047000.7,N
1626092415.0,286047000.3,N
1626092415.9,286047000.3,N
1626092435.8,286046999.0,N
1626092455.6,286047000.7,N
1626092475.5,286046998.4,N
1626092495.3,286046998.2,N
1626092515.1,286046999.3,N
1626092535.9,286046997.0,N
1626092555.7,286046997.0,N
1626092575.5,286046998.5,N
1626092595.4,286046999.1,N
1626092615.2,286046999.5,N
1626092635.1,286046996.8,N
1626092636.0,286046996.8,N
1626092655.8,286046997.3,N
1626092675.6,286046995.6,Y
1626092695.5,286046999.2,P
1626092715.3,286046997.5,P
1626092735.1,286046997.0,P
1626092755.9,286046999.4,N
1626092775.7,286046998.5,N
1626092795.6,286046999.3,N
1626092815.4,286047000.5,N
1626092835.2,286047001.0,N
1626092855.1,286047000.2,N
1626092856.0,286047000.2,N
1626092875.8,286047001.2,N
1626092895.7,286046998.1,N
1626092915.5,286046998.7,N
1626092935.3,286046998.3,N
1626092955.2,286046998.9,N
1626092975.9,286046998.2,N
1626092995.7,286046998.2,N
1626093015.6,286047000.3,N
1626093035.4,286047001.2,N
1626093055.3,286046999.3,N
1626093075.1,286046999.0,N
1626093076.0,286046999.0,N
1626093095.8,286046999.2,N
1626093115.7,286046994.9,Y
1626093135.5,286046997.8,P
1626093155.3,286046997.0,P
1626093175.2,286046996.9,P
1626093195.0,286046997.2,Y
1626093195.9,286046997.2,P
1626093215.8,286046998.1,P
1626093235.6,286046998.2,P
1626093255.4,286046999.4,N
1626093275.3,286046998.5,N
1626093295.1,286046997.0,Y
1626093315.8,286047000.8,P
1626093335.7,286046998.1,N
1626093355.5,286047002.4,N
1626093375.4,286047002.6,N
1626093395.2,286046998.2,N
1626093415.0,286047000.3,N
1626093415.9,286047000.3,N
1626093435.8,286047000.1,N
1626093455.6,286046999.8,N
1626093475.4,286047002.6,N
1626093495.3,286047002.6,N
1626093515.1,286047002.2,N
1626093535.9,286047002.7,N
1626093555.7,286047001.5,N
1626093575.5,286047002.2,N
1626093595.4,286047001.5,N
1626093615.2,286047003.6,N
1626093635.0,286047002.9,N
1626093635.9,286047002.9,N
1626093655.8,286047003.5,N
1626093675.6,286047004.7,N
1626093695.5,286047004.6,N
1626093715.3,286047007.4,Y
1626093735.1,286047005.6,P
1626093755.9,286047005.4,N
1626093775.7,286047006.0,P
1626093795.5,286047005.6,Y
1626093815.4,286047001.0,P
1626093835.2,286047000.6,N
1626093855.1,286047001.2,N
1626093856.0,286047001.2,N
1626093875.8,286047001.2,N
1626093895.6,286046998.7,N
1626093915.5,286046998.7,N
1626093935.3,286046996.9,N
1626093955.1,286046999.3,N
1626093975.9,286046998.6,N
1626093995.7,286046998.4,N
1626094015.6,286047001.0,N
1626094035.4,286046998.6,N
1626094055.2,286046998.3,N
1626094075.1,286047000.5,N
1626094076.0,286047000.5,N
1626094095.8,286047001.1,N
1626094115.7,286047001.1,N
1626094135.5,286046998.4,N
1626094155.3,286046998.5,N
1626094175.2,286046998.4,N
1626094195.0,286046996.9,N
1626094195.9,286046996.9,N
1626094215.8,286046999.3,N
1626094235.6,286046995.4,N
1626094255.4,286046998.0,N
1626094275.3,286046995.1,N
1626094295.1,286046998.0,N
1626094315.9,286046995.1,N
1626094335.7,286046995.5,N
1626094355.5,286046995.5,N
1626094375.4,286046995.2,N
1626094395.2,286046995.7,N
1626094415.0,286046995.4,N
1626094415.9,286046995.4,N
1626094435.8,286046995.8,N
1626094455.6,286046995.7,N
1626094475.5,286046995.9,N
1626094495.3,286046996.3,N
1626094515.1,286046995.6,N
1626094535.9,286046993.3,Y
1626094555.7,286046996.8,P
1626094575.5,286046999.5,N
1626094595.4,286046999.6,N
1626094615.2,286046999.5,N
1626094635.1,286046996.9,N
1626094636.0,286046996.9,N
1626094655.8,286046999.3,N
1626094675.6,286046999.1,N
1626094695.5,286046996.9,N
1626094715.3,286046997.4,N
1626094735.1,286046996.9,N
1626094755.9,286046997.9,N
1626094775.7,286046998.0,N
1626094795.6,286046997.0,N
